Flag for Canada Weather past 2 weeks in Pictou County, Nova Scotia, Canada

Now
65 °F

Mild.


Feels Like: 65 °F
Forecast: 65 / 76 °F
Wind: 13 mph from South

Location: Caribou Point

Current Time: Jul 31, 2015 at 4:38:49 AM

Latest Report: Jul 31, 2015 at 4:00 AM


Visibility: N/A

Pressure: 29.74 "Hg

Humidity: 90%

Dew point: 62 °F

Location of Pictou CountyLocation

Historic Weather in Pictou County — Graph

°F

Pictou County temperature yesterday

Maximum temperature yesterday: 71 °F (at 4:00 PM)
Minimum temperature yesterday: 60 °F (at 2:00 AM)
Average temperature yesterday: 65 °F

Past Weeks' High & Low Weather Summary

 TemperatureHumidityPressure
High73 °F (Jul 18, 12:00 PM)100% (Jul 19, 10:00 PM)30.13 "Hg (Jul 19, 10:00 PM)
Low53 °F (Jul 17, 6:00 AM)51% (Jul 18, 11:00 AM)29.53 "Hg (Jul 22, 5:00 PM)
Average62 °F86%29.89 "Hg
* Reported Jul 16 3:00 AM — Jul 31 3:00 AM, Pictou County, Weather by CustomWeather, © 2015

Note: Actual official high and low records may vary slightly from our data, if they occured in-between our weather recording intervals... More about our weather records

Advertising

Pictou County weather history for previous 24 hours

 ConditionsComfort  
Time TempWeatherWind HumidityBarometerVisibility
3:00 AM
Fri, Jul 31
65 °FMild.15 mph85%29.76 "HgN/A
2:00 AM65 °FMild.7 mph83%29.78 "HgN/A
1:00 AM66 °FMild.8 mph82%29.81 "HgN/A
12:00 AM64 °FMild.8 mph91%29.81 "HgN/A
11:00 PM
Thu, Jul 30
65 °FMild.8 mph85%29.82 "HgN/A
10:00 PM64 °FMild.5 mph88%29.83 "HgN/A
9:00 PM64 °FMild.8 mph89%29.83 "HgN/A
8:00 PM64 °FMild.7 mph87%29.84 "HgN/A
7:00 PM67 °FMild.6 mph84%29.85 "HgN/A
6:00 PM68 °FMild.6 mph81%29.85 "HgN/A
5:00 PM69 °FMild.7 mph72%29.85 "HgN/A
4:00 PM71 °FMild.2 mph68%29.86 "HgN/A
3:00 PM69 °FMild.5 mph73%29.88 "HgN/A
2:00 PM68 °FMild.9 mph74%29.90 "HgN/A
1:00 PM67 °FMild.12 mph77%29.90 "HgN/A
12:00 PM67 °FMild.7 mph79%29.90 "HgN/A
11:00 AM64 °FMild.9 mph85%29.91 "HgN/A
10:00 AM64 °FMild.12 mph87%29.90 "HgN/A
9:00 AM63 °FMild.9 mph85%29.90 "HgN/A
8:00 AM63 °FMild.10 mph87%29.90 "HgN/A
7:00 AM62 °FCool.12 mph87%29.90 "HgN/A
6:00 AM62 °FCool.12 mph86%29.89 "HgN/A
5:00 AM62 °FCool.13 mph86%29.88 "HgN/A
4:00 AM62 °FCool.14 mph81%29.87 "HgN/A
Weather by CustomWeather, © 2015

See weather overviewHow to use our weather pages